Weather History for Renton, WA

Change the Weather History Date:

Friday, March 30, 2012

  Actual Average Record
Temperature  
Mean Temperature 46 °F -  
Max Temperature 51 °F 53 °F 68 °F (2003)
Min Temperature 42 °F 39 °F 33 °F (2008)
Degree Days  
Heating Degree Days 19    
Moisture  
Dew Point 42 °F    
Average Humidity 86    
Maximum Humidity 100    
Minimum Humidity 68    
Precipitation  
Precipitation 0.28 in - - ()
Sea Level Pressure  
Sea Level Pressure 29.61 in    
Wind  
Wind Speed 5 mph (SSE)    
Max Wind Speed 18 mph    
Max Gust Speed 28 mph    
Visibility 9 miles    
Events Rain    
Averages and records for this station are not official NWS values.
T = Trace of Precipitation, MM = Missing Value Source: NWS Daily Summary

Daily Weather History Graph

Daily Weather History Graph

Search for Another Location

Airport:

Trip Planner

Search our weather history database for the weather conditions in past years. The results will help you decide how hot, cold, wet, or windy it might be!

Date:

Astronomy

Mar. 30, 2012 Rise Set
Actual Time 6:50 AM PDT 7:36 PM PDT
Civil Twilight 6:19 AM PDT 8:07 PM PDT
Nautical Twilight 5:42 AM PDT 8:44 PM PDT
Astronomical Twilight 5:03 AM PDT 9:23 PM PDT
Moon 11:42 AM PDT (3/30) 2:36 AM PDT (3/30)
Length of Visible Light 13h 48m
Length of Day
12h 46m
Waxing Crescent, 50% of the Moon is Illuminated
Mar 30
Waxing Crescent
Mar 30
First Quarter
Apr 6
Full
Apr 13
Last Quarter
Apr 21
New

Hourly Weather History & Observations

Time (PDT) Temp. Windchill Dew Point Humidity Pressure Visibility Wind Dir Wind Speed Gust Speed Precip Events Conditions
12:53 AM 46.0 °F 44.8 °F 44.1 °F 93% 29.50 in 10.0 mi SE 3.5 mph - 0.02 in Rain Light Rain
1:37 AM 46.4 °F 44.3 °F 44.6 °F 93% 29.48 in 8.0 mi SE 4.6 mph - 0.03 in Rain Light Rain
1:53 AM 45.0 °F 43.5 °F 44.1 °F 97% 29.50 in 10.0 mi SSE 3.5 mph - 0.03 in Rain Light Rain
2:53 AM 46.0 °F 43.1 °F 43.0 °F 89% 29.51 in 10.0 mi SE 5.8 mph - 0.01 in Rain Light Rain
3:33 AM 46.4 °F - 44.6 °F 93% 29.49 in 10.0 mi Calm Calm - 0.00 in Rain Light Rain
3:46 AM 44.6 °F - 42.8 °F 93% 29.49 in 10.0 mi Calm Calm - 0.00 in Rain Light Rain
3:53 AM 45.0 °F - 44.1 °F 97% 29.50 in 10.0 mi Calm Calm - 0.00 in Rain Light Rain
4:53 AM 46.0 °F 43.9 °F 44.1 °F 93% 29.51 in 10.0 mi SE 4.6 mph - 0.02 in   Overcast
5:01 AM 46.4 °F 44.3 °F 42.8 °F 87% 29.49 in 10.0 mi SE 4.6 mph - N/A   Overcast
5:23 AM 44.6 °F 43.1 °F 42.8 °F 93% 29.50 in 10.0 mi SE 3.5 mph - 0.00 in Rain Light Rain
5:34 AM 44.6 °F - 42.8 °F 93% 29.51 in 10.0 mi Calm Calm - 0.00 in   Overcast
5:53 AM 45.0 °F 43.5 °F 43.0 °F 93% 29.54 in 7.0 mi South 3.5 mph - 0.01 in Rain Light Rain
6:11 AM 44.6 °F 42.2 °F 44.6 °F 100% 29.53 in 7.0 mi SSE 4.6 mph - 0.01 in Rain Light Rain
6:18 AM 44.6 °F 42.2 °F 42.8 °F 93% 29.52 in 6.0 mi SSE 4.6 mph - 0.01 in Rain Light Rain
6:50 AM 44.6 °F 41.4 °F 44.6 °F 100% 29.53 in 10.0 mi SE 5.8 mph - 0.01 in   Overcast
6:53 AM 45.0 °F 41.8 °F 44.1 °F 97% 29.54 in 10.0 mi SE 5.8 mph - 0.01 in   Overcast
7:53 AM 45.0 °F 42.6 °F 42.1 °F 90% 29.58 in 10.0 mi SSE 4.6 mph - N/A   Overcast
8:33 AM 44.6 °F 43.1 °F 42.8 °F 93% 29.59 in 10.0 mi South 3.5 mph - N/A   Overcast
8:53 AM 45.0 °F - 42.1 °F 90% 29.62 in 10.0 mi Calm Calm - N/A   Overcast
9:53 AM 46.0 °F 43.9 °F 42.1 °F 86% 29.64 in 10.0 mi SSE 4.6 mph - N/A   Overcast
10:53 AM 46.9 °F - 42.1 °F 83% 29.65 in 10.0 mi South 8.1 mph - N/A   Overcast
11:53 AM 48.9 °F - 42.1 °F 77% 29.64 in 10.0 mi South 6.9 mph - N/A   Overcast
12:53 PM 50.0 °F - 42.1 °F 74% 29.64 in 10.0 mi SSE 6.9 mph - 0.00 in Rain Light Rain
1:13 PM 48.2 °F - 42.8 °F 82% 29.63 in 1.8 mi SSW 11.5 mph - 0.10 in Rain Heavy Rain
1:16 PM 46.4 °F 43.5 °F 42.8 °F 87% 29.63 in 3.0 mi SSW 5.8 mph - 0.11 in Rain Heavy Rain
1:53 PM 46.9 °F - 37.9 °F 71% 29.66 in 3.0 mi South 10.4 mph 21.9 mph 0.16 in Rain Light Rain
2:53 PM 50.0 °F - 42.1 °F 74% 29.66 in 10.0 mi SSE 13.8 mph 20.7 mph 0.00 in   Mostly Cloudy
3:53 PM 46.9 °F - 39.9 °F 77% 29.72 in 4.0 mi South 13.8 mph 27.6 mph 0.02 in Rain Light Rain
4:53 PM 48.0 °F - 39.9 °F 74% 29.74 in 10.0 mi South 18.4 mph 26.5 mph 0.00 in   Clear
5:53 PM 46.9 °F - 37.0 °F 68% 29.76 in 10.0 mi South 15.0 mph 27.6 mph N/A   Partly Cloudy
6:53 PM 46.0 °F 40.2 °F 36.0 °F 68% 29.77 in 10.0 mi South 12.7 mph 25.3 mph N/A   Clear
7:53 PM 45.0 °F 40.1 °F 35.1 °F 68% 29.77 in 10.0 mi South 9.2 mph - N/A   Clear
8:53 PM 45.0 °F - 35.1 °F 68% 29.78 in 10.0 mi Calm Calm - N/A   Clear
9:53 PM 43.0 °F - 37.9 °F 82% 29.77 in 10.0 mi Calm Calm - N/A   Partly Cloudy
10:53 PM 42.1 °F - 37.9 °F 85% 29.75 in 10.0 mi Calm Calm - N/A   Clear
11:53 PM 42.1 °F - 37.9 °F 85% 29.73 in 10.0 mi Calm Calm - N/A   Partly Cloudy